ZSRMH FAPE-FAPE

Flight info

Callsign ZSRMH
Flight time 0h 3m
Altitude 1500
Route FAPE DCT COASTWISE WEST DCT FAPE
Aircraft R44/L-VGD/C

Departure

Time 2026-04-23 13:47
Airport Chief Dawid Stuurman International Airport (FAPE)

Arrival

Time 2026-04-23 13:50
Airport Chief Dawid Stuurman International Airport (FAPE)
Time Latitude Longitude Altitude Speed Heading
2026-04-23 12:58 -33.98581 25.60899 206 ft 0 kts 332°
2026-04-23 13:15 -33.98589 25.60893 233 ft 8 kts 123°
2026-04-23 13:16 -33.98663 25.60894 239 ft 24 kts 121°
2026-04-23 13:16 -33.98802 25.61001 230 ft 22 kts 107°
2026-04-23 13:16 -33.98772 25.61172 247 ft 35 kts 72°
2026-04-23 13:16 -33.98552 25.61601 333 ft 80 kts 64°
2026-04-23 13:17 -33.98238 25.62206 437 ft 90 kts 64°
2026-04-23 13:17 -33.97896 25.62880 484 ft 96 kts 62°
2026-04-23 13:17 -33.97826 25.63646 501 ft 98 kts 107°
2026-04-23 13:17 -33.98331 25.64256 467 ft 112 kts 139°
2026-04-23 13:18 -33.99063 25.64713 360 ft 117 kts 148°
2026-04-23 13:18 -33.99793 25.65100 391 ft 110 kts 151°
2026-04-23 13:18 -34.00522 25.65406 352 ft 114 kts 160°
2026-04-23 13:18 -34.01321 25.65592 322 ft 118 kts 164°
2026-04-23 13:19 -34.02129 25.65394 338 ft 124 kts 199°
2026-04-23 13:19 -34.02845 25.64758 404 ft 130 kts 211°
2026-04-23 13:19 -34.03535 25.64066 474 ft 131 kts 214°
2026-04-23 13:19 -34.04123 25.63152 329 ft 144 kts 239°
2026-04-23 13:20 -34.04374 25.62014 356 ft 138 kts 262°
2026-04-23 13:20 -34.04546 25.60921 396 ft 128 kts 257°
2026-04-23 13:20 -34.04732 25.59860 327 ft 129 kts 256°
2026-04-23 13:20 -34.04919 25.58790 298 ft 131 kts 262°
2026-04-23 13:21 -34.04756 25.57792 272 ft 116 kts 307°
2026-04-23 13:21 -34.04421 25.56908 293 ft 111 kts 298°
2026-04-23 13:21 -34.04220 25.56003 308 ft 112 kts 284°
2026-04-23 13:21 -34.04103 25.55154 496 ft 97 kts 273°
2026-04-23 13:22 -34.04125 25.54297 534 ft 105 kts 272°
2026-04-23 13:22 -34.03980 25.53353 449 ft 123 kts 282°
2026-04-23 13:22 -34.03780 25.52462 542 ft 101 kts 287°
2026-04-23 13:22 -34.03669 25.51598 442 ft 104 kts 281°
2026-04-23 13:23 -34.03608 25.50800 488 ft 88 kts 280°
2026-04-23 13:23 -34.03518 25.50037 411 ft 102 kts 286°
2026-04-23 13:23 -34.03356 25.49208 368 ft 98 kts 295°
2026-04-23 13:23 -34.03130 25.48438 398 ft 99 kts 294°
2026-04-23 13:24 -34.02964 25.47614 355 ft 102 kts 288°
2026-04-23 13:24 -34.02826 25.46796 344 ft 95 kts 277°
2026-04-23 13:24 -34.02858 25.46008 297 ft 92 kts 250°
2026-04-23 13:24 -34.02964 25.45273 333 ft 87 kts 258°
2026-04-23 13:25 -34.03060 25.44588 407 ft 76 kts 259°
2026-04-23 13:25 -34.03075 25.43961 429 ft 78 kts 272°
2026-04-23 13:25 -34.03138 25.43233 383 ft 90 kts 269°
2026-04-23 13:25 -34.03124 25.42491 471 ft 92 kts 271°
2026-04-23 13:26 -34.03071 25.41690 476 ft 87 kts 282°
2026-04-23 13:26 -34.03043 25.41058 601 ft 71 kts 292°
2026-04-23 13:26 -34.03001 25.40495 644 ft 73 kts 284°
2026-04-23 13:26 -34.02884 25.39790 513 ft 83 kts 292°
2026-04-23 13:27 -34.02643 25.39158 526 ft 81 kts 303°
2026-04-23 13:27 -34.02381 25.38512 416 ft 91 kts 294°
2026-04-23 13:27 -34.02171 25.37796 382 ft 90 kts 285°
2026-04-23 13:27 -34.01955 25.37063 315 ft 95 kts 298°
2026-04-23 13:28 -34.01712 25.36379 371 ft 81 kts 299°
2026-04-23 13:28 -34.01535 25.35741 413 ft 84 kts 290°
2026-04-23 13:28 -34.01285 25.35071 425 ft 92 kts 307°
2026-04-23 13:28 -34.00958 25.34340 405 ft 105 kts 302°
2026-04-23 13:29 -34.00595 25.33565 415 ft 106 kts 299°
2026-04-23 13:29 -34.00288 25.32766 439 ft 106 kts 298°
2026-04-23 13:29 -34.00021 25.31947 429 ft 101 kts 296°
2026-04-23 13:29 -33.99798 25.31183 495 ft 95 kts 294°
2026-04-23 13:30 -33.99569 25.30400 417 ft 104 kts 297°
2026-04-23 13:30 -33.99240 25.29623 293 ft 104 kts 313°
2026-04-23 13:30 -33.98877 25.28901 286 ft 99 kts 302°
2026-04-23 13:30 -33.98689 25.28107 276 ft 102 kts 289°
2026-04-23 13:31 -33.98480 25.27263 115 ft 104 kts 291°
2026-04-23 13:31 -33.98259 25.26470 198 ft 102 kts 293°
2026-04-23 13:31 -33.98031 25.25683 407 ft 97 kts 281°
2026-04-23 13:31 -33.97922 25.24834 494 ft 110 kts 277°
2026-04-23 13:32 -33.97692 25.23946 323 ft 107 kts 303°
2026-04-23 13:32 -33.97442 25.23140 277 ft 104 kts 284°
2026-04-23 13:32 -33.97258 25.22310 183 ft 96 kts 295°
2026-04-23 13:32 -33.97014 25.21661 212 ft 71 kts 351°
2026-04-23 13:33 -33.96873 25.21666 76 ft 18 kts 94°
2026-04-23 13:33 -33.96876 25.21719 17 ft 0 kts 96°
2026-04-23 13:35 -33.96877 25.21721 23 ft 1 kts 92°
2026-04-23 13:35 -33.96879 25.21800 57 ft 25 kts 91°
2026-04-23 13:36 -33.96960 25.22200 113 ft 68 kts 110°
2026-04-23 13:36 -33.97124 25.22786 175 ft 75 kts 105°
2026-04-23 13:36 -33.97269 25.23341 365 ft 65 kts 110°
2026-04-23 13:36 -33.97439 25.23851 537 ft 65 kts 108°
2026-04-23 13:37 -33.97590 25.24395 509 ft 73 kts 109°
2026-04-23 13:37 -33.97757 25.24978 424 ft 73 kts 108°
2026-04-23 13:37 -33.97897 25.25561 389 ft 71 kts 107°
2026-04-23 13:37 -33.98072 25.26182 382 ft 84 kts 109°
2026-04-23 13:38 -33.98269 25.26890 410 ft 96 kts 106°
2026-04-23 13:38 -33.98471 25.27670 422 ft 97 kts 103°
2026-04-23 13:38 -33.98646 25.28481 417 ft 100 kts 104°
2026-04-23 13:38 -33.98924 25.29288 435 ft 105 kts 108°
2026-04-23 13:39 -33.99092 25.30141 442 ft 107 kts 106°
2026-04-23 13:39 -33.99511 25.30921 468 ft 110 kts 117°
2026-04-23 13:39 -33.99871 25.31699 711 ft 93 kts 110°
2026-04-23 13:39 -34.00100 25.32478 555 ft 110 kts 116°
2026-04-23 13:40 -34.00430 25.33275 527 ft 103 kts 115°
2026-04-23 13:40 -34.00731 25.34050 481 ft 102 kts 115°
2026-04-23 13:40 -34.01007 25.34801 453 ft 90 kts 107°
2026-04-23 13:40 -34.01123 25.35535 422 ft 90 kts 103°
2026-04-23 13:41 -34.01208 25.36268 416 ft 87 kts 95°
2026-04-23 13:41 -34.01288 25.36974 447 ft 87 kts 101°
2026-04-23 13:41 -34.01372 25.37700 478 ft 83 kts 94°
2026-04-23 13:41 -34.01438 25.38390 549 ft 84 kts 96°
2026-04-23 13:42 -34.01457 25.39154 554 ft 92 kts 89°
2026-04-23 13:42 -34.01436 25.39925 541 ft 93 kts 86°
2026-04-23 13:42 -34.01381 25.40693 592 ft 92 kts 83°
2026-04-23 13:42 -34.01363 25.41489 507 ft 96 kts 97°
2026-04-23 13:43 -34.01393 25.42235 545 ft 90 kts 92°
2026-04-23 13:43 -34.01424 25.42997 483 ft 93 kts 97°
2026-04-23 13:43 -34.01462 25.43750 532 ft 87 kts 98°
2026-04-23 13:43 -34.01499 25.44431 772 ft 76 kts 92°
2026-04-23 13:44 -34.01493 25.45165 615 ft 101 kts 83°
2026-04-23 13:44 -34.01392 25.45986 462 ft 89 kts 83°
2026-04-23 13:44 -34.01318 25.46641 432 ft 73 kts 82°
2026-04-23 13:44 -34.01254 25.47251 443 ft 73 kts 84°
2026-04-23 13:45 -34.01225 25.47675 467 ft 78 kts 86°
2026-04-23 13:45 -34.01181 25.48583 451 ft 82 kts 88°
2026-04-23 13:45 -34.01134 25.49254 508 ft 81 kts 87°
2026-04-23 13:45 -34.01074 25.49932 566 ft 77 kts 88°
2026-04-23 13:46 -34.01056 25.50555 614 ft 79 kts 92°
2026-04-23 13:46 -34.00988 25.51231 593 ft 81 kts 79°
2026-04-23 13:46 -34.00696 25.51795 660 ft 82 kts 46°
2026-04-23 13:46 -34.00166 25.52047 814 ft 86 kts 31°
2026-04-23 13:47 -33.99685 25.52425 891 ft 79 kts 58°
2026-04-23 13:47 -33.99516 25.53042 871 ft 81 kts 81°
2026-04-23 13:47 -33.99206 25.53559 857 ft 93 kts
2026-04-23 13:47 -33.98616 25.53387 808 ft 68 kts 68°
2026-04-23 13:48 -33.98420 25.53808 631 ft 70 kts 117°
2026-04-23 13:48 -33.98636 25.54365 709 ft 76 kts 107°
2026-04-23 13:48 -33.98876 25.54964 770 ft 83 kts 109°
2026-04-23 13:48 -33.99051 25.55636 796 ft 87 kts 96°
2026-04-23 13:49 -33.99082 25.56376 751 ft 92 kts 94°
2026-04-23 13:49 -33.99131 25.57038 665 ft 70 kts 96°
2026-04-23 13:49 -33.99198 25.57613 642 ft 69 kts 89°
2026-04-23 13:49 -33.99228 25.58162 634 ft 68 kts 84°
2026-04-23 13:50 -33.99237 25.58743 511 ft 64 kts 93°
2026-04-23 13:50 -33.99246 25.59179 442 ft 44 kts 82°
2026-04-23 13:50 -33.99220 25.59544 366 ft 41 kts 84°
2026-04-23 13:50 -33.99201 25.59828 302 ft 28 kts 79°
2026-04-23 13:51 -33.99139 25.60061 256 ft 27 kts 69°
2026-04-23 13:51 -33.99082 25.60171 255 ft 4 kts 73°
2026-04-23 13:51 -33.99013 25.60300 291 ft 24 kts 65°
2026-04-23 13:51 -33.98927 25.60469 253 ft 22 kts 72°
2026-04-23 13:52 -33.98835 25.60635 245 ft 24 kts 66°
2026-04-23 13:52 -33.98763 25.60790 257 ft 20 kts 73°
2026-04-23 13:52 -33.98620 25.60834 232 ft 12 kts 78°
2026-04-23 13:52 -33.98617 25.60850 206 ft 0 kts 91°